Meteopurmerend
purmerend
Purmerend - Baaienwijk



My webcam  My webcam


Onweer radar Meer informatie blitzortung!


Regen radar Meer informatie rain snow radar


Bezoek onze andere website:

CandyAppleRed WebdesignWebdesign Purmerend Candy Apple Red

MeteopurmerendBlog

Template documentation
and downloads



We konden geen weer-waarchuwingen ophalen. Ga rechtstreeks naar de Meteoalarm site : www.meteoalarm.eu en controleer daar .

15 daagse weersverwachting Angers (FR)

  • Overzicht
  • Per uur
  • 15 dagen
  • Extra
  • Vergelijk
  • Kaarten
  • Dagkaart
  • Meer »
  • Info
  • Statistieken
  • Directe link
    Temp 6h Neerslag Wind  
 07:00     21:14    Daglengte: 14:14 Vandaag
20:00
23°
 
4
 07:01     21:12    Daglengte: 14:11 Morgen
02:00
19°
 
2
08:00
18°
 
2
14:00
24°
 
4
20:00
22°
 
3
 07:03     21:10    Daglengte: 14:07 Woensdag 17 Aug
02:00
17°
 
2
08:00
16°
 
2
14:00
22°
6.2 mm
4
warningclass
20:00
20°
15.3 mm
2
warningclass
 07:04     21:08    Daglengte: 14:04 Donderdag 18 Aug
02:00
17°
6.8 mm
2
warningclass
08:00
17°
13.1 mm
2
14:00
24°
4.4 mm
3
Locatie info
Region: Pays de la Loire
Latitude: 47.4707°N
Longitude: -0.5533°E
50 masl
Postcode: 49100
Temp/Neerslag /Baro Onweer/Dauwpunt
    Temp Baro 1h Neerslag Dauwpunt Wind UV Bewolking  
 07:00     21:14    Daglengte: 14:14 Vandaag
18:00
24°
1006.3 hPa
22%
17.3°
5
Windvlaag: 3.7 m/s
80%
19:00
24°
1006.3 hPa
31%
17.0°
4
Windvlaag: 3.4 m/s
81%
20:00
23°
1006.3 hPa
31%
15.8°
4
Windvlaag: 3 m/s
80%
21:00
22°
1006.4 hPa   15.1°
3
Windvlaag: 2.6 m/s
73%
22:00
21°
1007.1 hPa   15.0°
2
Windvlaag: 1.9 m/s
32%
23:00
21°
1007.6 hPa   14.9°
2
Windvlaag: 2.5 m/s
20%
 07:01     21:12    Daglengte: 14:11 Morgen
00:00
20°
1007.7 hPa   15.1°
2
Windvlaag: 2.9 m/s
16%
01:00
19°
1007.6 hPa   16.1°
2
Windvlaag: 2.8 m/s
49%
02:00
19°
1007.6 hPa
19%
16.1°
2
Windvlaag: 3.6 m/s
81%
03:00
19°
1007.7 hPa   16.2°
2
Windvlaag: 3.6 m/s
75%
04:00
18°
1007.4 hPa   16.6°
2
Windvlaag: 2.9 m/s
69%
05:00
18°
1007.4 hPa   17.0°
2
Windvlaag: 3.8 m/s
64%
06:00
18°
1006.8 hPa   17.2°
2
Windvlaag: 3.7 m/s
37%
07:00
18°
1007.0 hPa   17.1°
2
Windvlaag: 3.5 m/s
62%
08:00
18°
1007.3 hPa   17.1°
2
Windvlaag: 2.8 m/s
69%
09:00
18°
1007.5 hPa
17%
17.2°
2
Windvlaag: 3.7 m/s
77%
10:00
19°
1007.7 hPa
76%
17.4°
3
Windvlaag: 4.4 m/s
71%
11:00
20°
1007.8 hPa
82%
17.5°
2
Windvlaag: 4.2 m/s
84%
12:00
22°
1007.7 hPa
78%
16.5°
2
Windvlaag: 3.9 m/s
73%
13:00
23°
1007.8 hPa
73%
14.5°
3
Windvlaag: 4.2 m/s
76%
14:00
24°
1007.6 hPa
72%
17.0°
4
Windvlaag: 5.3 m/s
84%
15:00
24°
1007.4 hPa
36%
15.5°
3
Windvlaag: 5.7 m/s
76%
16:00
24°
1007.2 hPa
80%
18.1°
3
Windvlaag: 3.7 m/s
74%
17:00
23°
1007.0 hPa
81%
19.3°
2
Windvlaag: 2.2 m/s
15%
18:00
23°
1006.8 hPa
77%
19.8°
2
Windvlaag: 1.5 m/s
24%
19:00
23°
1006.6 hPa
38%
19.8°
2
Windvlaag: 1.6 m/s
60%
20:00
22°
1006.7 hPa
35%
18.8°
3
Windvlaag: 1.7 m/s
60%
21:00
21°
1007.0 hPa
19%
17.9°
3
Windvlaag: 2.4 m/s
29%
22:00
19°
1007.6 hPa
19%
17.4°
2
Windvlaag: 0.1 m/s
35%
23:00
18°
1008.1 hPa
15%
17.3°
2
Windvlaag: -0.8 m/s
39%
 07:03     21:10    Daglengte: 14:07 Woensdag 17 Aug
00:00
18°
1008.1 hPa
17%
17.3°
2
Windvlaag: -0.2 m/s
29%
01:00
18°
1008.0 hPa
21%
17.0°
2
Windvlaag: 0.4 m/s
8%
02:00
17°
1007.7 hPa
61%
16.5°
2
Windvlaag: 2.7 m/s
11%
03:00
17°
1007.5 hPa
20%
15.9°
1
Windvlaag: 3.2 m/s
19%
04:00
16°
1007.5 hPa
14%
15.4°
1
Windvlaag: 2.4 m/s
20%
05:00
16°
1007.4 hPa
14%
15.3°
2
Windvlaag: 2.2 m/s
41%
06:00
16°
1007.5 hPa
18%
15.0°
2
Windvlaag: 1.7 m/s
60%
07:00
16°
1007.8 hPa
23%
14.9°
2
Windvlaag: 0.2 m/s
66%
08:00
16°
1008.1 hPa
21%
15.2°
2
Windvlaag: 0.9 m/s
80%
09:00
17°
1008.3 hPa
18%
16.1°
3
Windvlaag: 1.4 m/s
82%
10:00
19°
1008.4 hPa
25%
16.1°
3
Windvlaag: 2.9 m/s
77%
11:00
21°
1008.9 hPa
30%
15.2°
3
Windvlaag: 3.7 m/s
76%
12:00
21°
1009.0 hPa 1.7 mm
88%
15.0°
3
Windvlaag: 3.4 m/s
89% warningclass
13:00
22°
1009.1 hPa 1.9 mm
100%
15.0°
4
Windvlaag: 3.3 m/s
92% warningclass
14:00
22°
1009.1 hPa 2.6 mm
100%
14.9°
4
Windvlaag: 3.5 m/s
95% warningclass
15:00
22°
1008.9 hPa 1.8 mm
97%
12.4°
3
Windvlaag: 3.5 m/s
84% warningclass
16:00
23°
1008.6 hPa 2.4 mm
100%
10.4°
2
Windvlaag: 2.7 m/s
96%
17:00
22°
1008.7 hPa 2.7 mm
100%
9.5°
2
Windvlaag: 2.3 m/s
88% warningclass
18:00
21°
1008.7 hPa 2.8 mm
100%
12.4°
3
Windvlaag: 2.7 m/s
85% warningclass
19:00
21°
1009.0 hPa 2.7 mm
98%
15.7°
2
Windvlaag: 2.5 m/s
99% warningclass
20:00
20°
1009.3 hPa 2.9 mm
100%
16.9°
2
Windvlaag: 3.1 m/s
83% warningclass
21:00
20°
1009.8 hPa 2.7 mm
100%
16.2°
2
Windvlaag: 2.4 m/s
63% warningclass
22:00
19°
1010.3 hPa 4.1 mm
100%
15.8°
2
Windvlaag: 0.5 m/s
57% warningclass
23:00
18°
1010.7 hPa
90%
15.8°
2
Windvlaag: 0.2 m/s
29%
 07:04     21:08    Daglengte: 14:04 Donderdag 18 Aug
00:00
18°
1011.1 hPa
23%
15.7°
2
Windvlaag: -0.8 m/s
29%
01:00
17°
1011.2 hPa
90%
16.3°
2
Windvlaag: 0.1 m/s
29%
02:00
17°
1011.4 hPa
95%
16.5°
2
Windvlaag: 0.3 m/s
64%
03:00
17°
1011.3 hPa 4.4 mm
97%
16.3°
2
Windvlaag: 1.3 m/s
64%
04:00
17°
1011.5 hPa 4.3 mm
97%
16.1°
2
Windvlaag: 1.6 m/s
73%
05:00
16°
1011.5 hPa
76%
16.0°
2
Windvlaag: 1.1 m/s
95%
06:00
17°
1011.7 hPa
31%
16.4°
2
Windvlaag: 6.6 m/s
68%
07:00
17°
1012.4 hPa
37%
16.3°
1
Windvlaag: 5.8 m/s
67%
08:00
17°
1013.1 hPa 4.3 mm
92%
16.4°
2
Windvlaag: 6.1 m/s
76%
09:00
18°
1013.5 hPa 4.4 mm
92%
16.5°
2
Windvlaag: 6.3 m/s
70%
10:00
19°
1013.7 hPa
94%
17.2°
3
Windvlaag: 6.1 m/s
86%
11:00
20°
1014.1 hPa
35%
18.0°
3
Windvlaag: 6.9 m/s
20%
12:00
22°
1014.3 hPa
29%
17.5°
3
Windvlaag: 6.5 m/s
19%
13:00
23°
1014.3 hPa
26%
15.9°
3
Windvlaag: 5.6 m/s
16%
14:00
24°
1014.3 hPa
41%
14.5°
3
Windvlaag: 4.6 m/s
21%
15:00
26°
1014.6 hPa 12.9 mm
100%
14.5°
4
Windvlaag: 4.6 m/s
94%
16:00
26°
1014.6 hPa 12.9 mm
100%
14.4°
6
Windvlaag: 5.7 m/s
98%
17:00
27°
1014.7 hPa 12.9 mm
100%
13.9°
6
Windvlaag: 5.9 m/s
87%
Temp/Neerslag /Baro Onweer/Dauwpunt
    Temp Baro Neerslag Dauwpunt Wind Bewolking  
 07:00     21:14    Daglengte: 14:14 Vandaag
20:00
23°
1006.3 hPa   15.8°
4
80%
23:00
21°
1007.6 hPa   14.9°
2
20%
 07:01     21:12    Daglengte: 14:11 Morgen
02:00
19°
1007.6 hPa   16.1°
2
81%
05:00
18°
1007.4 hPa   17.0°
2
64%
08:00
18°
1007.3 hPa   17.1°
2
69%
11:00
20°
1007.8 hPa   17.5°
2
84%
14:00
24°
1007.6 hPa   17.0°
4
84%
17:00
23°
1007.0 hPa   19.3°
2
15%
20:00
22°
1006.7 hPa   18.8°
3
60%
23:00
18°
1008.1 hPa   17.3°
2
39%
 07:03     21:10    Daglengte: 14:07 Woensdag 17 Aug
02:00
17°
1007.7 hPa   16.5°
2
11%
05:00
16°
1007.4 hPa   15.3°
2
41%
08:00
16°
1008.1 hPa   15.2°
2
80%
11:00
21°
1008.9 hPa   15.2°
3
76%
14:00
22°
1009.1 hPa 6.2 mm 14.9°
4
95% warningclass
17:00
22°
1008.7 hPa 6.9 mm 9.5°
2
88% warningclass
20:00
20°
1009.3 hPa 8.4 mm 16.9°
2
83% warningclass
23:00
18°
1010.7 hPa 6.8 mm 15.8°
2
29% warningclass
 07:04     21:08    Daglengte: 14:04 Donderdag 18 Aug
02:00
17°
1011.4 hPa   16.5°
2
64%
05:00
16°
1011.5 hPa 8.7 mm 16.0°
2
95%
08:00
17°
1013.1 hPa 4.3 mm 16.4°
2
76%
11:00
20°
1014.1 hPa 4.4 mm 18.0°
3
20%
14:00
24°
1014.3 hPa   14.5°
3
21%
17:00
27°
1014.7 hPa 38.7 mm 13.9°
6
87%
20:00
26°
1015.5 hPa 38.7 mm 11.2°
6
48%
23:00
19°
1018.0 hPa 11.7 mm 15.8°
5
1%
 07:05     21:07    Daglengte: 14:02 Vrijdag 19 Aug
02:00
16°
1018.9 hPa 11.7 mm 15.1°
3
1%
05:00
15°
1019.1 hPa 11.7 mm 13.5°
3
0%
08:00
16°
1020.0 hPa 11.7 mm 14.5°
2
0%
11:00
23°
1020.5 hPa 11.7 mm 14.8°
4
0%
14:00
26°
1019.6 hPa 11.8 mm 14.6°
5
0%
17:00
25°
1019.6 hPa 13.1 mm 16.0°
5
1%
20:00
23°
1019.8 hPa 14.4 mm 15.8°
3
1%
23:00
17°
1021.3 hPa 14.6 mm 11.3°
3
0%
 07:07     21:05    Daglengte: 13:58 Zaterdag 20 Aug
02:00
14°
1021.8 hPa 14.6 mm 9.9°
3
0%
05:00
13°
1022.3 hPa 14.6 mm 9.4°
2
1%
08:00
13°
1023.1 hPa 14.6 mm 9.1°
2
1%
11:00
20°
1023.3 hPa 14.6 mm 9.0°
2
1%
14:00
25°
1022.0 hPa 14.6 mm 5.2°
3
0%
17:00
27°
Voelt als: 26.3°
1020.9 hPa 14.6 mm 4.8°
4
0%
20:00
25°
1020.9 hPa 14.6 mm 6.7°
3
0%
23:00
16°
1022.6 hPa 14.6 mm 9.5°
4
0%
 07:08     21:03    Daglengte: 13:55 Zondag 21 Aug
02:00
14°
1022.4 hPa 14.6 mm 10.2°
3
0%
05:00
13°
1022.3 hPa 14.6 mm 10.5°
2
0%
08:00
13°
1023.0 hPa 14.6 mm 10.6°
2
0%
11:00
21°
1023.2 hPa 14.6 mm 8.7°
2
1%
14:00
26°
Voelt als: 26.1°
1022.0 hPa 14.6 mm 8.6°
4
0%
17:00
28°
Voelt als: 26.9°
1020.7 hPa 14.6 mm 7.2°
5
0%
20:00
25°
1020.3 hPa 14.6 mm 8.0°
3
0%
23:00
18°
1021.2 hPa 14.6 mm 10.5°
3
1%
 07:09     21:01    Daglengte: 13:52 Maandag 22 Aug
02:00
15°
1021.3 hPa 14.6 mm 11.3°
3
1%
05:00
15°
1020.7 hPa 14.6 mm 12.2°
2
1%
08:00
15°
1020.8 hPa 14.6 mm 13.0°
2
1%
11:00
23°
1020.5 hPa 14.6 mm 13.6°
3
1%
14:00
28°
Voelt als: 27.4°
1019.3 hPa 14.6 mm 13.5°
4
0%
17:00
30°
Voelt als: 29.0°
1017.5 hPa   13.4°
4
0%
20:00
27°
1017.0 hPa 29.3 mm 16.1°
3
0%
 07:11     20:59    Daglengte: 13:48 Dinsdag 23 Aug
02:00
19°
1018.1 hPa 29.3 mm 16.7°
2
0%
08:00
18°
1017.7 hPa 29.3 mm 16.6°
2
0%
14:00
30°
Voelt als: 29.6°
1015.4 hPa 29.3 mm 15.1°
3
0%
20:00
31°
Voelt als: 30.2°
1013.4 hPa 29.3 mm 14.0°
2
0%
 07:12     20:57    Daglengte: 13:45 Woensdag 24 Aug
02:00
21°
1015.1 hPa 29.3 mm 15.6°
3
0%
08:00
19°
1016.1 hPa 29.3 mm 14.9°
3
0%
14:00
33°
Voelt als: 32.0°
1015.1 hPa 29.3 mm 12.2°
5
0%
20:00
33°
Voelt als: 31.4°
1014.3 hPa 29.3 mm 10.4°
4
0%
 07:13     20:56    Daglengte: 13:43 Donderdag 25 Aug
02:00
23°
1017.8 hPa 29.3 mm 14.5°
5
0%
08:00
20°
1018.9 hPa 29.3 mm 15.4°
4
1%
14:00
30°
Voelt als: 29.1°
1018.1 hPa   11.6°
2
43%
20:00
29°
Voelt als: 28.2°
1017.0 hPa 0.1 mm 11.2°
2
46%
 07:15     20:54    Daglengte: 13:39 Vrijdag 26 Aug
02:00
19°
1018.7 hPa 0.3 mm 12.6°
3
39%
08:00
17°
1018.7 hPa 0.3 mm 12.6°
2
40%
14:00
30°
Voelt als: 28.7°
1018.0 hPa 0.2 mm 12.4°
2
43%
20:00
28°
Voelt als: 27.5°
1017.0 hPa 0.2 mm 11.9°
3
53%
 07:16     20:52    Daglengte: 13:36 Zaterdag 27 Aug
02:00
19°
1018.8 hPa 0.3 mm 12.9°
3
39%
08:00
16°
1018.7 hPa   12.3°
2
33%
14:00
29°
Voelt als: 28.1°
1018.0 hPa   11.1°
2
36%
20:00
28°
Voelt als: 27.0°
1016.7 hPa   10.6°
3
29%
 07:17     20:50    Daglengte: 13:33 Zondag 28 Aug
02:00
18°
1018.5 hPa 0.1 mm 11.8°
2
28%
08:00
16°
1018.4 hPa 0.1 mm 11.6°
2
32%
14:00
29°
Voelt als: 27.8°
1017.8 hPa 0.1 mm 11.5°
2
36%
20:00
27°
Voelt als: 26.7°
1017.2 hPa 0.1 mm 11.0°
2
40%
 07:19     20:48    Daglengte: 13:29 Maandag 29 Aug
02:00
19°
1019.2 hPa 0.3 mm 11.5°
3
38%
08:00
16°
1019.5 hPa   11.5°
2
42%
14:00
29°
Voelt als: 27.6°
1019.0 hPa 0.1 mm 10.2°
2
31%
20:00
27°
Voelt als: 26.8°
1018.1 hPa 0.2 mm 9.6°
2
38%
 07:20     20:46    Daglengte: 13:26 Dinsdag 30 Aug
02:00
18°
1019.8 hPa 0.6 mm 11.6°
3
32%
08:00
16°
1019.9 hPa 0.1 mm 11.5°
2
28%
14:00
28°
Voelt als: 27.6°
1019.2 hPa 0.1 mm 10.5°
2
29%
  CAPE Lifted Index Hail Supercell Tornado SRH 3km CL BTM PRES CL TOP PRES Swiss DWD icon SMHI TS
 07:00     21:14    Daglengte: 14:14 Vandaag
18:00 123 J/kg -0.1 K 0 % 0 % 0 % 0 m²/s² 0 0 1.01 3
19:00 140 J/kg -0.5 K 0 % 0 % 0 % 0 m²/s² 0 0 0.67 3
20:00 77 J/kg 0.2 K 0 % 0 % 0 % 0 m²/s² 0 0 1.19 3
21:00 0 J/kg 0.9 K 0 % 0 % 0 % 0 m²/s² 0 0 1.86 3
22:00 0 J/kg 0.9 K 0 % 0 % 0 % 0 m²/s² 0 0 2.79 2
23:00 0 J/kg 1.6 K 0 % 0 % 0 % 0 m²/s² 0 0 3.91 2
 07:01     21:12    Daglengte: 14:11 Morgen
00:00 0 J/kg 1.5 K 0 % 0 % 0 % 0 m²/s² 0 0 3.96 2
01:00 0 J/kg 1.4 K 0 % 0 % 0 % 0 m²/s² 0 0 4.4 3
02:00 14 J/kg 0.5 K 0 % 0 % 0 % 0 m²/s² 0 0 4.73 3
03:00 67 J/kg 0.2 K 0 % 0 % 0 % 0 m²/s² 0 0 4.1 3
04:00 108 J/kg 0.0 K 0 % 0 % 0 % 0 m²/s² 0 0 2.67 3
05:00 144 J/kg -0.6 K 0 % 0 % 0 % 0 m²/s² 0 0 1.29 3
06:00 147 J/kg -0.7 K 0 % 0 % 0 % 0 m²/s² 0 0 0.11 2
07:00 127 J/kg -0.6 K 0 % 0 % 0 % 0 m²/s² 0 0 -0.09 3
08:00 170 J/kg -1.1 K 0 % 0 % 0 % 0 m²/s² 0 0 -0.8 3
09:00 234 J/kg -1.0 K 0 % 0 % 0 % 0 m²/s² 0 0 -0.88 3
10:00 82 J/kg -0.1 K 0 % 0 % 0 % 0 m²/s² 0 0 0.08 3
11:00 40 J/kg 0.1 K 0 % 0 % 0 % 0 m²/s² 0 0 0.67 3
12:00 147 J/kg -1.2 K 0 % 0 % 0 % 0 m²/s² 0 0 -0.78 3
13:00 232 J/kg -1.6 K 0 % 0 % 0 % 0 m²/s² 0 0 -1.09 3
14:00 339 J/kg -2.2 K 0 % 0 % 0 % 0 m²/s² 0 0 -1.15 3
15:00 539 J/kg -2.9 K 0 % 0 % 0 % 0 m²/s² 0 0 -2.06 3
16:00 691 J/kg -3.4 K 0 % 0 % 0 % 0 m²/s² 0 0 -2.74 3
17:00 663 J/kg -2.8 K 0 % 0 % 0 % 0 m²/s² 0 0 -2.53 80
18:00 525 J/kg -3.1 K 0 % 0 % 0 % 0 m²/s² 0 0 -3.1 2
19:00 560 J/kg -2.5 K 0 % 0 % 0 % 0 m²/s² 0 0 -1.03 3
20:00 701 J/kg -2.9 K 0 % 0 % 0 % 0 m²/s² 0 0 -2 3
21:00 620 J/kg -2.1 K 0 % 0 % 0 % 0 m²/s² 0 0 -1.35 3
22:00 444 J/kg -1.8 K 0 % 0 % 0 % 0 m²/s² 0 0 0.69 3
23:00 363 J/kg -1.9 K 0 % 0 % 0 % 0 m²/s² 0 0 -0.76 3
 07:03     21:10    Daglengte: 14:07 Woensdag 17 Aug
00:00 375 J/kg -2.3 K 0 % 0 % 0 % 0 m²/s² 0 0 0.19 3
01:00 418 J/kg -2.3 K 0 % 0 % 0 % 0 m²/s² 0 0 0.1 2
02:00 338 J/kg -2.4 K 0 % 0 % 0 % 0 m²/s² 0 0 -0.27 1
03:00 120 J/kg -2.1 K 0 % 0 % 0 % 0 m²/s² 0 0 0.24 3
04:00 228 J/kg -2.3 K 0 % 0 % 0 % 0 m²/s² 0 0 0.04 3
05:00 242 J/kg -2.4 K 0 % 0 % 0 % 0 m²/s² 0 0 -0.21 3
06:00 284 J/kg -2.9 K 0 % 0 % 0 % 0 m²/s² 0 0 -1.28 2
07:00 314 J/kg -3.0 K 0 % 0 % 0 % 0 m²/s² 0 0 -1.02 3
08:00 483 J/kg -2.9 K 0 % 0 % 0 % 0 m²/s² 0 0 -1.4 3
09:00 563 J/kg -3.0 K 0 % 0 % 0 % 0 m²/s² 0 0 -1.68 3
10:00 918 J/kg -4.0 K 0 % 0 % 0 % 0 m²/s² 0 0 -2.92 3
11:00 998 J/kg -4.1 K 0 % 0 % 0 % 0 m²/s² 0 0 -3.02 2
12:00 964 J/kg -3.8 K 0 % 0 % 0 % 0 m²/s² 0 0 -2.72 3
13:00 1072 J/kg -4.2 K 0 % 0 % 0 % 0 m²/s² 0 0 -2.76 3
14:00 1142 J/kg -4.7 K 0 % 0 % 0 % 0 m²/s² 0 0 -3.2 3
15:00 945 J/kg -4.2 K 0 % 0 % 0 % 0 m²/s² 0 0 -2.58 80
16:00 741 J/kg -3.4 K 0 % 0 % 0 % 0 m²/s² 0 0 -1.27 3
17:00 754 J/kg -3.3 K 0 % 0 % 0 % 0 m²/s² 0 0 -1.38 95
18:00 959 J/kg -4.1 K 0 % 0 % 0 % 0 m²/s² 0 0 -2.36 80
19:00 974 J/kg -3.8 K 0 % 0 % 0 % 0 m²/s² 0 0 -3.32 3
20:00 1042 J/kg -4.6 K 0 % 0 % 0 % 0 m²/s² 0 0 -4 80
21:00 1015 J/kg -4.1 K 0 % 0 % 0 % 0 m²/s² 0 0 -2.96 80
22:00 990 J/kg -4.1 K 0 % 0 % 0 % 0 m²/s² 0 0 -3.2 80
23:00 729 J/kg -3.4 K 0 % 0 % 0 % 0 m²/s² 0 0 -2.32 3
 07:04     21:08    Daglengte: 14:04 Donderdag 18 Aug
00:00 658 J/kg -3.6 K 0 % 0 % 0 % 0 m²/s² 0 0 -2.37 3
01:00 632 J/kg -4.3 K 0 % 0 % 0 % 0 m²/s² 0 0 -3.16 3
02:00 608 J/kg -4.2 K 0 % 0 % 0 % 0 m²/s² 0 0 -2.97 3
03:00 258 J/kg -3.7 K 0 % 0 % 0 % 0 m²/s² 0 0 -1.99 80
04:00 33 J/kg -2.8 K 0 % 0 % 0 % 0 m²/s² 0 0 -0.52 3
05:00 10 J/kg -2.6 K 0 % 0 % 0 % 0 m²/s² 0 0 0.04 3
06:00 39 J/kg -1.9 K 0 % 0 % 0 % 0 m²/s² 0 0 0.92 2
07:00 160 J/kg -1.5 K 0 % 0 % 0 % 0 m²/s² 0 0 1.14 3
08:00 136 J/kg -0.8 K 0 % 0 % 0 % 0 m²/s² 0 0 1.78 3
09:00 32 J/kg -0.3 K 0 % 0 % 0 % 0 m²/s² 0 0 2.37 80
10:00 21 J/kg -0.4 K 0 % 0 % 0 % 0 m²/s² 0 0 2.33 3
11:00 27 J/kg -0.1 K 0 % 0 % 0 % 0 m²/s² 0 0 3.05 2
12:00 179 J/kg -1.0 K 0 % 0 % 0 % 0 m²/s² 0 0 2.33 2
13:00 331 J/kg -1.7 K 0 % 0 % 0 % 0 m²/s² 0 0 1.36 2
14:00 395 J/kg -1.8 K 0 % 0 % 0 % 0 m²/s² 0 0 0.36 3
15:00 323 J/kg -1.3 K 0 % 0 % 0 % 0 m²/s² 0 0 0.8
16:00 238 J/kg -0.6 K 0 % 0 % 0 % 0 m²/s² 0 0 1.11
17:00 137 J/kg 0.0 K 0 % 0 % 0 % 0 m²/s² 0 0 1.71
Temp Baro Wind Neerslag
  EWN Forecast EWN WRFDA DWD ICON FMI HIRLAM MET Norway GFS
 07:00     21:14    Daglengte: 14:14 Vandaag
20:00 23.2° 1006.3 hPa 3.8 m/s 0.0 mm 25.5° 1005.3 hPa 6.6 m/s 0.0 mm 23.1° 1006.3 hPa 2.9 m/s -1.4 mm 24.0° 1006.3 hPa 3.8 m/s 0.0 mm 25.3° 1005.4 hPa 5.8 m/s
23:00 20.6° 1007.6 hPa 2.0 m/s 0.0 mm 20.4° 1006.4 hPa 4.1 m/s 0.0 mm 20.6° 1007.4 hPa 1.7 m/s 0.0 mm 21.8° 1007.7 hPa 2.3 m/s 0.0 mm 19.6° 1007.0 hPa 3.5 m/s
 07:01     21:12    Daglengte: 14:11 Morgen
02:00 19.0° 1007.6 hPa 1.7 m/s 0.0 mm 18.6° 1006.9 hPa 2.6 m/s 0.0 mm 19.1° 1007.6 hPa 1.4 m/s 0.0 mm 19.5° 1007.5 hPa 1.4 m/s 0.0 mm 17.3° 1007.1 hPa 2.4 m/s
05:00 18.0° 1007.4 hPa 1.8 m/s 0.0 mm 17.4° 1006.5 hPa 2.2 m/s 0.0 mm 18.3° 1007.7 hPa 1.5 m/s 0.0 mm 18.1° 1006.7 hPa 1.7 m/s 0.0 mm 16.2° 1007.1 hPa 3.1 m/s
08:00 18.0° 1007.3 hPa 1.9 m/s 0.0 mm 17.9° 1006.4 hPa 2.3 m/s 0.0 mm 18.0° 1007.4 hPa 1.9 m/s 0.0 mm 18.0° 1006.8 hPa 2.3 m/s 0.0 mm 17.4° 1006.5 hPa 1.7 m/s
11:00 20.3° 1007.8 hPa 2.2 m/s 0.0 mm 21.9° 1007.2 hPa 2.4 m/s 0.0 mm 20.9° 1008.0 hPa 2.6 m/s 0.0 mm 20.1° 1007.2 hPa 1.9 m/s 0.0 mm 20.2° 1007.8 hPa 0.8 m/s
14:00 23.9° 1007.6 hPa 3.6 m/s 0.0 mm 26.7° 1005.9 hPa 2.5 m/s 0.1 mm 24.0° 1007.8 hPa 3.9 m/s 0.1 mm 23.8° 1007.0 hPa 3.8 m/s 0.0 mm 25.0° 1007.4 hPa 2.3 m/s
17:00 23.3° 1007.0 hPa 2.4 m/s 0.0 mm 24.9° 1005.0 hPa 2.3 m/s 2.2 mm 23.3° 1007.3 hPa 3.0 m/s 0.5 mm 23.4° 1005.8 hPa 2.6 m/s 0.0 mm 27.4° 1005.9 hPa 3.6 m/s
20:00 22.3° 1006.7 hPa 2.5 m/s 0.0 mm 22.6° 1005.7 hPa 1.2 m/s 8.7 mm 23.2° 1006.8 hPa 2.8 m/s 0.1 mm 21.8° 1005.9 hPa 4.0 m/s 0.0 mm 21.7° 1006.7 hPa 1.7 m/s
23:00 18.4° 1008.1 hPa 1.9 m/s 0.0 mm 19.8° 1007.8 hPa 1.0 m/s 11.3 mm 18.8° 1008.2 hPa 3.0 m/s 0.0 mm 17.8° 1007.5 hPa 1.2 m/s 0.0 mm 16.2° 1009.3 hPa 2.1 m/s
 07:03     21:10    Daglengte: 14:07 Woensdag 17 Aug
02:00 17.1° 1007.7 hPa 1.8 m/s 0.0 mm 16.2° 1006.9 hPa 2.0 m/s 12.0 mm 17.4° 1007.9 hPa 1.0 m/s 0.1 mm 16.3° 1006.8 hPa 1.8 m/s 0.0 mm 15.1° 1009.2 hPa 2.7 m/s
05:00 16.0° 1007.4 hPa 1.6 m/s 0.0 mm 14.5° 1006.8 hPa 2.6 m/s 12.0 mm 16.3° 1007.7 hPa 1.6 m/s 0.0 mm 15.5° 1006.1 hPa 1.8 m/s 0.0 mm 15.8° 1008.1 hPa 1.3 m/s
08:00 16.0° 1008.1 hPa 2.1 m/s 0.0 mm 15.2° 1007.6 hPa 2.1 m/s 12.1 mm 17.1° 1008.4 hPa 2.2 m/s 0.0 mm 16.0° 1006.2 hPa 2.4 m/s 0.0 mm 15.8° 1009.0 hPa 1.5 m/s
11:00 20.6° 1008.9 hPa 3.1 m/s 0.0 mm 20.8° 1008.6 hPa 2.1 m/s 12.1 mm 21.0° 1008.8 hPa 3.2 m/s 0.0 mm 16.9° 1009.8 hPa 4.9 m/s
14:00 22.2° 1009.1 hPa 3.6 m/s 6.2 mm 22.7° 1009.0 hPa 3.5 m/s 14.9 mm 23.2° 1008.6 hPa 3.4 m/s 0.1 mm 19.0° 1009.2 hPa 5.7 m/s
17:00 21.6° 1008.7 hPa 2.3 m/s 6.9 mm 25.0° 1008.5 hPa 1.2 m/s 16.4 mm 21.0° 1008.6 hPa 2.2 m/s 2.5 mm 22.3° 1008.7 hPa 2.2 m/s
20:00 20.4° 1009.3 hPa 2.3 m/s 8.4 mm 20.6° 1009.4 hPa 2.3 m/s 24.4 mm 19.9° 1008.9 hPa 2.6 m/s 2.0 mm 19.5° 1009.6 hPa 5.0 m/s
23:00 18.2° 1010.7 hPa 2.2 m/s 6.8 mm 19.2° 1011.3 hPa 4.4 m/s 36.0 mm 18.2° 1010.3 hPa 2.0 m/s 0.4 mm 15.6° 1012.1 hPa 2.6 m/s
 07:04     21:08    Daglengte: 14:04 Donderdag 18 Aug
02:00 17.0° 1011.4 hPa 1.6 m/s 0.0 mm 17.1° 1011.8 hPa 2.9 m/s 37.9 mm 17.3° 1011.0 hPa 1.7 m/s 0.1 mm 14.6° 1012.8 hPa 2.0 m/s
05:00 16.5° 1011.5 hPa 1.8 m/s 8.7 mm 16.7° 1012.5 hPa 3.8 m/s 38.0 mm 17.1° 1011.2 hPa 1.8 m/s 0.4 mm 14.0° 1013.3 hPa 2.9 m/s
08:00 17.2° 1013.1 hPa 2.0 m/s 4.3 mm 17.7° 1013.6 hPa 3.3 m/s 38.3 mm 17.1° 1013.0 hPa 1.7 m/s 0.1 mm 14.6° 1014.6 hPa 1.6 m/s
11:00 20.1° 1014.1 hPa 3.0 m/s 4.4 mm 18.7° 1015.1 hPa 3.9 m/s 38.6 mm 20.4° 1013.8 hPa 2.8 m/s 0.2 mm 20.2° 1015.7 hPa 1.2 m/s
14:00 24.4° 1014.3 hPa 3.1 m/s 0.0 mm 25.2° 1015.1 hPa 3.5 m/s 38.7 mm 24.1° 1014.1 hPa 3.0 m/s 0.0 mm 24.9° 1015.6 hPa 1.1 m/s
17:00 26.8° 1014.7 hPa 5.8 m/s 38.7 mm 26.8° 1014.7 hPa 5.8 m/s 38.7 mm 27.0° 1015.0 hPa 3.1 m/s
20:00 25.9° 1015.5 hPa 6.3 m/s 38.7 mm 25.9° 1015.5 hPa 6.3 m/s 38.7 mm 24.0° 1015.6 hPa 5.6 m/s
23:00 18.9° 1018.0 hPa 4.8 m/s 11.7 mm 18.9° 1018.0 hPa 4.8 m/s 11.7 mm
 07:05     21:07    Daglengte: 14:02 Vrijdag 19 Aug
02:00 15.9° 1018.9 hPa 2.9 m/s 11.7 mm 15.9° 1018.9 hPa 2.9 m/s 11.7 mm
05:00 14.8° 1019.1 hPa 2.9 m/s 11.7 mm 14.8° 1019.1 hPa 2.9 m/s 11.7 mm
08:00 15.9° 1020.0 hPa 2.4 m/s 11.7 mm 15.9° 1020.0 hPa 2.4 m/s 11.7 mm
11:00 22.6° 1020.5 hPa 3.9 m/s 11.7 mm 22.6° 1020.5 hPa 3.9 m/s 11.7 mm
14:00 26.4° 1019.6 hPa 4.7 m/s 11.8 mm 26.4° 1019.6 hPa 4.7 m/s 11.8 mm
17:00 25.3° 1019.6 hPa 4.5 m/s 13.1 mm 25.3° 1019.6 hPa 4.5 m/s 13.1 mm
20:00 22.6° 1019.8 hPa 3.3 m/s 14.4 mm 22.6° 1019.8 hPa 3.3 m/s 14.4 mm
23:00 16.7° 1021.3 hPa 3.2 m/s 14.6 mm 16.7° 1021.3 hPa 3.2 m/s 14.6 mm
 07:07     21:05    Daglengte: 13:58 Zaterdag 20 Aug
02:00 13.8° 1021.8 hPa 2.9 m/s 14.6 mm 13.8° 1021.8 hPa 2.9 m/s 14.6 mm
05:00 12.6° 1022.3 hPa 2.4 m/s 14.6 mm 12.6° 1022.3 hPa 2.4 m/s 14.6 mm
08:00 13.0° 1023.1 hPa 2.0 m/s 14.6 mm 13.0° 1023.1 hPa 2.0 m/s 14.6 mm
11:00 19.7° 1023.3 hPa 2.4 m/s 14.6 mm 19.7° 1023.3 hPa 2.4 m/s 14.6 mm
14:00 25.0° 1022.0 hPa 2.7 m/s 14.6 mm 25.0° 1022.0 hPa 2.7 m/s 14.6 mm
17:00 27.2° 1020.9 hPa 3.5 m/s 14.6 mm 27.2° 1020.9 hPa 3.5 m/s 14.6 mm
20:00 24.5° 1020.9 hPa 2.9 m/s 14.6 mm 24.5° 1020.9 hPa 2.9 m/s 14.6 mm
23:00 16.4° 1022.6 hPa 4.2 m/s 14.6 mm 16.4° 1022.6 hPa 4.2 m/s 14.6 mm
 07:08     21:03    Daglengte: 13:55 Zondag 21 Aug
02:00 14.1° 1022.4 hPa 2.8 m/s 14.6 mm 14.1° 1022.4 hPa 2.8 m/s 14.6 mm
05:00 12.8° 1022.3 hPa 1.8 m/s 14.6 mm 12.8° 1022.3 hPa 1.8 m/s 14.6 mm
08:00 13.4° 1023.0 hPa 1.9 m/s 14.6 mm 13.4° 1023.0 hPa 1.9 m/s 14.6 mm
11:00 21.1° 1023.2 hPa 2.3 m/s 14.6 mm 21.1° 1023.2 hPa 2.3 m/s 14.6 mm
14:00 26.2° 1022.0 hPa 3.7 m/s 14.6 mm 26.2° 1022.0 hPa 3.7 m/s 14.6 mm
17:00 28.0° 1020.7 hPa 4.6 m/s 14.6 mm 28.0° 1020.7 hPa 4.6 m/s 14.6 mm
20:00 25.0° 1020.3 hPa 2.7 m/s 14.6 mm 25.0° 1020.3 hPa 2.7 m/s 14.6 mm
23:00 17.8° 1021.2 hPa 3.2 m/s 14.6 mm 17.8° 1021.2 hPa 3.2 m/s 14.6 mm
 07:09     21:01    Daglengte: 13:52 Maandag 22 Aug
02:00 15.5° 1021.3 hPa 3.1 m/s 14.6 mm 15.5° 1021.3 hPa 3.1 m/s 14.6 mm
05:00 15.0° 1020.7 hPa 2.3 m/s 14.6 mm 15.0° 1020.7 hPa 2.3 m/s 14.6 mm
08:00 15.5° 1020.8 hPa 1.6 m/s 14.6 mm 15.5° 1020.8 hPa 1.6 m/s 14.6 mm
11:00 22.7° 1020.5 hPa 3.4 m/s 14.6 mm 22.7° 1020.5 hPa 3.4 m/s 14.6 mm
14:00 27.6° 1019.3 hPa 3.8 m/s 14.6 mm 27.6° 1019.3 hPa 3.8 m/s 14.6 mm
17:00 29.7° 1017.5 hPa 3.6 m/s 14.6 mm 29.7° 1017.5 hPa 3.6 m/s 14.6 mm
20:00 27.1° 1017.0 hPa 2.8 m/s 14.6 mm 27.1° 1017.0 hPa 2.8 m/s 14.6 mm
 07:11     20:59    Daglengte: 13:48 Dinsdag 23 Aug
02:00 18.9° 1018.1 hPa 1.9 m/s 14.6 mm 18.9° 1018.1 hPa 1.9 m/s 14.6 mm
08:00 18.1° 1017.7 hPa 2.3 m/s 14.6 mm 18.1° 1017.7 hPa 2.3 m/s 14.6 mm
14:00 29.8° 1015.4 hPa 3.0 m/s 14.6 mm 29.8° 1015.4 hPa 3.0 m/s 14.6 mm
20:00 30.8° 1013.4 hPa 2.0 m/s 14.6 mm 30.8° 1013.4 hPa 2.0 m/s 14.6 mm
 07:12     20:57    Daglengte: 13:45 Woensdag 24 Aug
02:00 20.7° 1015.1 hPa 3.5 m/s 14.6 mm 20.7° 1015.1 hPa 3.5 m/s 14.6 mm
08:00 18.8° 1016.1 hPa 3.0 m/s 14.6 mm 18.8° 1016.1 hPa 3.0 m/s 14.6 mm
14:00 33.2° 1015.1 hPa 4.8 m/s 14.6 mm 33.2° 1015.1 hPa 4.8 m/s 14.6 mm
20:00 33.1° 1014.3 hPa 3.9 m/s 14.6 mm 33.1° 1014.3 hPa 3.9 m/s 14.6 mm
 07:13     20:56    Daglengte: 13:43 Donderdag 25 Aug
02:00 22.9° 1017.8 hPa 5.2 m/s 14.6 mm 22.9° 1017.8 hPa 5.2 m/s 14.6 mm
08:00 19.7° 1018.9 hPa 3.7 m/s 14.6 mm 19.7° 1018.9 hPa 3.7 m/s 14.6 mm
14:00 30.2° 1018.1 hPa 1.8 m/s 0.0 mm
20:00 29.2° 1017.0 hPa 2.2 m/s 0.1 mm
 07:15     20:54    Daglengte: 13:39 Vrijdag 26 Aug
02:00 19.2° 1018.7 hPa 3.2 m/s 0.3 mm
08:00 17.4° 1018.7 hPa 2.5 m/s 0.3 mm
14:00 29.5° 1018.0 hPa 2.4 m/s 0.2 mm
20:00 28.1° 1017.0 hPa 2.6 m/s 0.2 mm
 07:16     20:52    Daglengte: 13:36 Zaterdag 27 Aug
02:00 18.6° 1018.8 hPa 2.7 m/s 0.3 mm
08:00 16.5° 1018.7 hPa 2.1 m/s 0.0 mm
14:00 29.1° 1018.0 hPa 2.3 m/s 0.0 mm
20:00 27.6° 1016.7 hPa 2.5 m/s 0.0 mm
 07:17     20:50    Daglengte: 13:33 Zondag 28 Aug
02:00 18.2° 1018.5 hPa 2.5 m/s 0.1 mm
08:00 16.4° 1018.4 hPa 1.7 m/s 0.1 mm
14:00 28.5° 1017.8 hPa 2.0 m/s 0.1 mm
20:00 27.0° 1017.2 hPa 2.1 m/s 0.1 mm
 07:19     20:48    Daglengte: 13:29 Maandag 29 Aug
02:00 18.6° 1019.2 hPa 2.5 m/s 0.3 mm
08:00 16.3° 1019.5 hPa 2.1 m/s 0.0 mm
14:00 28.6° 1019.0 hPa 2.3 m/s 0.1 mm
20:00 27.3° 1018.1 hPa 1.9 m/s 0.2 mm
 07:20     20:46    Daglengte: 13:26 Dinsdag 30 Aug
02:00 18.0° 1019.8 hPa 2.7 m/s 0.6 mm
08:00 15.9° 1019.9 hPa 2.1 m/s 0.1 mm
14:00 28.4° 1019.2 hPa 2.3 m/s 0.1 mm
FMI Hirlam - 7.5 km EWN WRFDA - 12 km DWD ICON - 7 km GFS - 25 km Basiskaart






























































Updatetijd (Europe/Amsterdam) Resolutie Lengte Stap
FMI Hirlam 14:00, 20:00, 02:00, 08:00 7.5 km 49h 1h
EWN WRFDA 16:15, 22:15, 04:15, 10:15 12 km 73h 1h
DWD ICON 11:45, 17:45, 23:45, 05:45 7 km 75h 1h
GFS 14:15, 20:15, 02:15, 08:15 25 km 237h 3h
30+ mm
25-30 mm
20-25 mm
15-20 mm
10-15 mm
6-10 mm
4-6 mm
2-4 mm
1-2 mm
0.5-1 mm
0.2-0.5 mm
0.1-0.2 mm
30+ mm
25-30 mm
20-25 mm
15-20 mm
10-15 mm
6-10 mm
4-6 mm
2-4 mm
1-2 mm
0.5-1 mm
0.2-0.5 mm
0.1-0.2 mm
Sneeuwval
Natte sneeuw
Hagel
Vorst
30+ mm
25-30 mm
20-25 mm
15-20 mm
10-15 mm
6-10 mm
4-6 mm
2-4 mm
1-2 mm
0.5-1 mm
0.2-0.5 mm
0.1-0.2 mm
Sneeuwval
Natte sneeuw
Hagel
Vorst
Onweer
50 mm
40 mm
30 mm
26 mm
22 mm
18 mm
14 mm
10 mm
9 mm
8 mm
7 mm
6 mm
5 mm
4.5 mm
4 mm
3.5 mm
3 mm
2.5 mm
2 mm
1.5 mm
1 mm
0.8 mm
0.6 mm
0.4 mm
0.2 mm
0.05 mm
35°
30°
25°
20°
15°
10°
-5°
-10°
-15°
-20°
-25°
-30°
-35°
33> m/s
29 m/s
25 m/s
21 m/s
17 m/s
14 m/s
11 m/s
8 m/s
5 m/s
3 m/s
0 m/s
2600 J/kg
2400 J/kg
2200 J/kg
2000 J/kg
1800 J/kg
1600 J/kg
1400 J/kg
1200 J/kg
1000 J/kg
800 J/kg
600 J/kg
400 J/kg
200 J/kg
70 dBZ
65 dBZ
60 dBZ
55 dBZ
50 dBZ
45 dBZ
40 dBZ
35 dBZ
30 dBZ
25 dBZ
20 dBZ
15 dBZ
10 dBZ
5 dBZ
-1 K
-2 K
-3 K
-4 K
-5 K
-6 K
-7 K
-8 K
-9 K
950 m²/s²
900 m²/s²
850 m²/s²
800 m²/s²
750 m²/s²
700 m²/s²
650 m²/s²
600 m²/s²
550 m²/s²
500 m²/s²
450 m²/s²
400 m²/s²
350 m²/s²
300 m²/s²
250 m²/s²
200 m²/s²
150 m²/s²
100 m²/s²
46 m/s
44 m/s
42 m/s
40 m/s
38 m/s
36 m/s
34 m/s
32 m/s
30 m/s
28 m/s
26 m/s
24 m/s
22 m/s
20 m/s
16 m/s
12 m/s
8 m/s
4 m/s
30 m/s
28 m/s
26 m/s
24 m/s
22 m/s
20 m/s
18 m/s
16 m/s
14 m/s
12 m/s
10 m/s
8 m/s
6 m/s
4 m/s
2 m/s
3.0
2.8
2.6
2.4
2.2
2.0
1.8
1.6
1.4
1.2
1.0
0.8
0.6
0.4
0.2
15
14
13
12
11
10
9
8
7
6
5
4
3
2
1
90%
80%
70%
60%
50%
40%
30%
20%
10%
42
40
38
36
34
32
30
28
26
24
22
20
18
16
14
12
90+ cm
80-90 cm
70-80 cm
60-70 cm
50-60 cm
40-50 cm
30-40 cm
20-30 cm
10-20 cm
1-10 cm
Sneeuwval
Natte sneeuw
Regen
>120 mm
115 mm
110 mm
105 mm
100 mm
95 mm
90 mm
85 mm
80 mm
75 mm
70 mm
65 mm
60 mm
55 mm
50 mm
45 mm
45 mm
40 mm
35 mm
30 mm
25 mm
20 mm
15 mm
10 mm
5 mm
0.1 mm
960 hPa
880 hPa
800 hPa
720 hPa
640 hPa
560 hPa
584 gpdm
568 gpdm
552 gpdm
536 gpdm
520 gpdm
504 gpdm
488 gpdm
Extreem zwaar Noodweer Kans op onweer
15% 15% 5% 50% 15%

Dag




Kaart






35°
30°
25°
20°
15°
10°
-5°
-10°
-15°
-20°
-25°
-30°
-35°
33> m/s
29 m/s
25 m/s
21 m/s
17 m/s
14 m/s
11 m/s
8 m/s
5 m/s
3 m/s
0 m/s
Extreem zwaar Noodweer Kans op onweer
15% 15% 5% 50% 15%
>120 mm